Hourly Data Report for November 07, 2016

CARBERRY CS
MANITOBA

49°54'20.900" N
99°21'26.800" W
383.50 m
5010547
71170
WZE

Download Data

Hourly Data (November 2016)
Hourly Data Report for November 7, 2016
TIME
LST
Temp Definition
°C
Dew Point Definition
°C
Rel Hum Definition
%
Precip. Amount Definition
mm

Wind Dir Definition
10's deg

Wind Spd Definition
km/h
Visibility Definition
km
Stn Press Definition
kPa
Hmdx Definition


Wind Chill Definition


Weather Definition


00:00 10.0 9.0 93 0.0 20 11   95.98     LegendNANA
01:00 9.5 8.3 93 0.0 20 15   95.94     LegendNANA
02:00 8.8 5.6 80 0.0 25 15   96.02     LegendNANA
03:00 7.4 4.3 81 0.0 26 22   96.08     LegendNANA
04:00 6.8 3.6 80 0.0 26 25   96.17     LegendNANA
05:00 6.9 3.1 77 0.0 25 20   96.25     LegendNANA
06:00 6.3 2.8 78 0.0 26 27   96.30     LegendNANA
07:00 5.4 2.7 83 0.0 26 27   96.46     LegendNANA
08:00 5.8 2.7 81 0.0 27 30   96.58     LegendNANA
09:00 6.1 2.5 78 0.0 28 34   96.70     LegendNANA
10:00 6.6 2.4 75 0.0 29 37   96.88     LegendNANA
11:00 8.5 3.0 68 0.0 29 44   97.03     LegendNANA
12:00 10.6 3.3 61 0.0 32 27   97.15     LegendNANA
13:00 11.9 3.4 56 0.0 31 27   97.25     LegendNANA
14:00 12.4 4.2 58 0.0 29 33   97.33     LegendNANA
15:00 12.1 3.8 57 0.0 30 32   97.43     LegendNANA
16:00 11.9 2.4 52 0.0 30 30   97.53     LegendNANA
17:00 9.3 2.6 63 0.0 29 13   97.61     LegendNANA
18:00 6.2 2.1 75 0.0 27 16   97.68     LegendNANA
19:00 7.0 2.3 72 0.0 28 19   97.77     LegendNANA
20:00 6.1 1.5 72 0.0 29 17   97.83     LegendNANA
21:00 3.7 0.8 81 0.0 29 13   97.91     LegendNANA
22:00 2.5 0.1 84 0.0 29 12   97.92     LegendNANA
23:00 1.8 -0.3 86 0.0 26 15   97.99     LegendNANA

Notes on Data Quality.

Legend

  • E = Estimated
  • M = Missing
  • NA = Not Available*
  • [empty] = Indicates an unobserved value
Date modified: